Dubuque, IA

8:32 AM CDT on October 21, 2019 (GMT -0500)
Dubuque Regional

Weather History for KDBQ - June, 2019

Change the Weather History Date:

Sunday, June 9, 2019

  Actual Average Record
Temperature  
Mean Temperature 68 °F 67 °F  
Max Temperature 78 °F 77 °F 95 °F (1911)
Min Temperature 58 °F 56 °F 42 °F (1969)
Degree Days  
Heating Degree Days 0 2  
Month to date heating degree days 5 22  
Since 1 June heating degree days 5 22  
Since 1 July heating degree days 7407 7068  
Cooling Degree Days 3 3  
Month to date cooling degree days 37 25  
Year to date cooling degree days 63 62  
Since 1 June cooling degree days 37 25  
Growing Degree Days 18 (Base 50)    
Moisture  
Dew Point 62 °F    
Average Humidity 81    
Maximum Humidity 97    
Minimum Humidity 62    
Precipitation  
Precipitation 0.04 in 0.15 in 3.45 in (1966)
Month to date precipitation 2.07 1.35  
Year to date precipitation 19.31 14.22  
Snow  
Snow 0.00 in 0.00 in - ()
Month to date snowfall 0.0 0.0  
Since 1 June snowfall 0.0 0.0  
Since 1 July snowfall 55.2 41.9  
Snow Depth 0.00 in    
Sea Level Pressure  
Sea Level Pressure 29.98 in    
Wind  
Wind Speed 7 mph ()    
Max Wind Speed 26 mph    
Max Gust Speed 36 mph    
Visibility 7.8 miles    
Events Rain    
T = Trace of Precipitation, MM = Missing Value Source: Averaged Metar Reports

Daily Weather History Graph

Daily Weather History Graph

Search for Another Location

Airport or City:

Astronomy

Jun. 09, 2019 Rise Set
Actual Time 5:25 AM CDT 8:38 PM CDT
Civil Twilight 4:51 AM CDT 9:13 PM CDT
Nautical Twilight 4:06 AM CDT 9:57 PM CDT
Astronomical Twilight 3:13 AM CDT 10:51 PM CDT
Moon 12:09 PM CDT (6/9) 1:14 AM CDT (6/9)
Length of Visible Light 16h 21m
Length of Day
15h 12m
Waxing Crescent, 44% of the Moon is Illuminated
Jun 9
Waxing Crescent
Jun 10
First Quarter
Jun 17
Full
Jun 25
Last Quarter
Jul 2
New

Hourly Weather History & Observations

Time (CDT) Temp. Dew Point Humidity Pressure Visibility Wind Dir Wind Speed Gust Speed Precip Events Conditions
12:53 AM 70.0 °F 57.0 °F 63% 29.96 in 10.0 mi East 9.2 mph - N/A   Overcast
1:53 AM 68.0 °F 57.0 °F 68% 29.96 in 10.0 mi East 10.4 mph - N/A   Clear
2:53 AM 66.9 °F 57.9 °F 73% 29.95 in 10.0 mi East 6.9 mph - N/A   Mostly Cloudy
3:53 AM 66.0 °F 60.1 °F 81% 29.95 in 10.0 mi East 4.6 mph - N/A   Mostly Cloudy
4:53 AM 64.9 °F 60.1 °F 84% 29.95 in 10.0 mi ENE 4.6 mph - N/A   Overcast
5:53 AM 64.0 °F 61.0 °F 90% 29.96 in 8.0 mi NE 4.6 mph - N/A   Overcast
6:25 AM 64.0 °F 61.0 °F 90% 29.98 in 6.0 mi NE 6.9 mph - N/A   Overcast
6:53 AM 64.9 °F 61.0 °F 87% 29.96 in 8.0 mi ENE 8.1 mph - N/A   Overcast
7:53 AM 64.9 °F 62.1 °F 90% 29.97 in 8.0 mi East 4.6 mph - N/A   Overcast
8:53 AM 66.0 °F 61.0 °F 84% 29.98 in 10.0 mi Calm Calm - N/A   Overcast
9:53 AM 64.9 °F 62.1 °F 90% 29.99 in 4.0 mi NNE 4.6 mph - 0.02 in Rain Light Rain
10:24 AM 64.9 °F 63.0 °F 93% 30.00 in 6.0 mi NNE 3.5 mph - 0.00 in   Overcast
10:35 AM 64.9 °F 63.0 °F 93% 30.00 in 6.0 mi NNE 4.6 mph - 0.00 in   Overcast
10:53 AM 64.9 °F 63.0 °F 93% 29.99 in 6.0 mi NNE 4.6 mph - 0.00 in   Overcast
11:11 AM 66.0 °F 63.0 °F 90% 30.00 in 1.8 mi NNE 4.6 mph - 0.00 in Rain Light Rain
11:21 AM 64.9 °F 64.0 °F 97% 30.00 in 1.5 mi NNE 3.5 mph - 0.01 in Rain Light Rain
11:35 AM 66.0 °F 64.0 °F 93% 30.00 in 2.0 mi NNE 4.6 mph - 0.02 in Rain Light Rain
11:53 AM 66.9 °F 64.9 °F 93% 29.98 in 2.5 mi ENE 3.5 mph - 0.02 in   Overcast
11:55 AM 66.9 °F 64.9 °F 93% 29.99 in 3.0 mi ENE 3.5 mph - N/A   Overcast
12:53 PM 69.1 °F 64.9 °F 87% 29.98 in 5.0 mi NNE 5.8 mph - N/A   Overcast
1:53 PM 72.0 °F 66.0 °F 81% 29.97 in 10.0 mi NNE 5.8 mph - N/A   Mostly Cloudy
2:53 PM 75.0 °F 64.9 °F 71% 29.96 in 10.0 mi NNE 5.8 mph - N/A   Partly Cloudy
3:53 PM 75.0 °F 64.0 °F 69% 29.96 in 10.0 mi ENE 5.8 mph - N/A   Clear
4:53 PM 78.1 °F 64.9 °F 64% 29.94 in 10.0 mi Variable 3.5 mph - N/A   Clear
5:53 PM 75.0 °F 64.9 °F 71% 29.96 in 10.0 mi North 5.8 mph - N/A   Scattered Clouds
6:53 PM 75.0 °F 64.9 °F 71% 29.96 in 10.0 mi NNW 6.9 mph - N/A   Partly Cloudy
7:45 PM 73.0 °F 63.0 °F 71% 29.99 in 10.0 mi NNW 16.1 mph 23.0 mph N/A   Mostly Cloudy
7:53 PM 72.0 °F 62.1 °F 71% 29.99 in 10.0 mi NW 19.6 mph 26.5 mph N/A   Mostly Cloudy
8:18 PM 69.1 °F 60.1 °F 73% 30.00 in 10.0 mi NW 20.7 mph 28.8 mph N/A   Scattered Clouds
8:53 PM 66.9 °F 57.9 °F 73% 30.01 in 10.0 mi NW 17.3 mph 28.8 mph N/A   Scattered Clouds
9:53 PM 64.0 °F 55.9 °F 75% 30.05 in 10.0 mi NNW 12.7 mph 26.5 mph N/A   Mostly Cloudy
10:53 PM 62.1 °F 55.0 °F 78% 30.07 in 10.0 mi NNW 19.6 mph 28.8 mph N/A   Overcast
11:53 PM 60.1 °F 53.1 °F 78% 30.08 in 10.0 mi NNW 17.3 mph 27.6 mph N/A   Mostly Cloudy